Regional Weather Roundup
Issued by NWS Portland, ME

Home | Current Version | Previous Version | Text Only | Print | Product List | Glossary On
Versions: 1 2 3 4 5 6 7 8 9 10 11 12 13 14 15 16 17 18 19 20 21 22 23 24 25 26 27 28 29 30 31 32 33 34 35 36 37 38 39 40 41 42 43 44 45 46 47 48 49 50
000
ASUS41 KGYX 261010
RWRGYX
WEATHER ROUNDUP FOR MAINE AND NEW HAMPSHIRE
NATIONAL WEATHER SERVICE GRAY ME
600 AM EDT SUN MAR 26 2017

MEZ002-005-006-010-012-015-018-020-021-024-026-027-029-261100-
MAINE

CITY           SKY/WX    TMP DP  RH WIND       PRES   REMARKS
PORTLAND       PTCLDY    24  11  57 NE3       30.52R
SANFORD        CLOUDY    11   8  88 CALM      30.52R
BAR HARBOR     CLEAR     22   5  48 N5        30.55R
WISCASSET      CLEAR     21  13  71 CALM      30.56R
ROCKLAND       CLEAR     27   8  44 VRB5      30.54R
FRYEBURG       CLOUDY     9   6  88 NW6       30.51R
LEWISTONAUBURN CLOUDY    18  10  71 CALM      30.53R
AUGUSTA        CLOUDY    23   1  38 N6        30.54R
WATERVILLE     CLOUDY    20   4  50 N5        30.53R
BANGOR         PTCLDY    21   2  43 N10       30.55R WCI  10
GREENVILLE       N/A     12  -3  51 N7        30.44R
MILLINOCKET    CLOUDY    13   3  64 CALM      30.55R
HOULTON        CLEAR     13  -2  51 NW5       30.50R
PRESQUE ISLE   PTCLDY    11  -3  53 NW3       30.52R
FRENCHVILLE    PTCLDY     9  -6  50 N9        30.46R
CARIBOU        PTCLDY    10  -4  53 NW6       30.50R
$$

NHZ002-005-008-009-011-012-014-261100-
NEW HAMPSHIRE

CITY           SKY/WX    TMP DP  RH WIND       PRES   REMARKS
PORTSMOUTH     PTCLDY    24  19  82 NW3       30.51R
ROCHESTER      CLOUDY    23  13  65 N7        30.50R
NASHUA         PTCLDY    22  21  96 NW5       30.52R
MANCHESTER     CLOUDY    22  19  89 N5        30.50R
CONCORD        CLOUDY    18  15  88 NE3       30.51R
LACONIA        CLOUDY    13  10  88 CALM      30.51R
PLYMOUTH       FAIR      14  12  93 CALM      30.52R
BERLIN         CLOUDY     1  -6  72 CALM      30.49R
WHITEFIELD     CLOUDY     1  -4  79 CALM      30.48R
JAFFREY        CLOUDY    19  14  81 CALM      30.46R
KEENE          PTCLDY    20  18  92 CALM      30.50R FOG
LEBANON        CLOUDY    17  15  92 CALM      30.51R
MT WASHINGTON  PTCLDY    18 -31  10 W17         N/A  WCI   2
$$

VTZ005-007-008-261100-
VERMONT

CITY           SKY/WX    TMP DP  RH WIND       PRES   REMARKS
ST JOHNSBURY     N/A     10   7  87 MISG      30.50R
MONTPELIER     FOG       14  13  95 S3        30.51R VSB 1/4
BURLINGTON     CLOUDY    18  14  84 CALM      30.50S
$$

MAZ007-012-024-CTZ003-RIZ002-NYZ038-NYZ072-261100-
SOUTHERN NEW ENGLAND AND NY

CITY           SKY/WX    TMP DP  RH WIND       PRES   REMARKS
BOSTON         CLOUDY    30  26  85 N10       30.50R
WORCESTER      CLOUDY    28  21  75 NE9       30.44R
NANTUCKET      CLOUDY    32  30  92 N7        30.45R
PROVIDENCE     CLOUDY    31  25  78 NE9       30.48R
HARTFORD       PTCLDY    28  26  92 N5        30.48R
ALBANY         CLOUDY    27  17  66 CALM      30.48R
NEW YORK CITY  CLOUDY    40  33  76 NE17      30.42R
$$

ANZ081-ANZ082-ANZ150-NHZ014-MEZ023>029-261100-
COASTAL MARINE OBSERVATIONS

STATION/POSITION TIME  TEMP    WIND        PRES    WAVE
                       AIR SEA DIR/SP/G            HT/PER
                 (UTC) (F)     (DEG/KT/KT) (MB)    (FT/S)
MOUNT DESERT ROC 1000   29                 1033.3R
MATINICUS ROCK   0900   32      30/ 15/ 18 1032.4R
ISLE OF SHOALS   0900   34      20/ 17/ 18 1032.2R
JEFFREYS LEDGE   0906      41                N/A     4/ 5
CASHES LEDGE BUO 0950   34 39              1032.8R   4/ 5
GEORGES BANK BUO 0950   39 40              1029.7R   6/ 9
$$

.............KEY..............
   WCI - WIND CHILL
   TC  - TEMPERATURE IN CELSIUS
   VSB - VISIBILITY IN MILES
   HX  - HEAT INDEX
   FAIR- INDICATES FEW OR NO CLOUDS BELOW 12,000 FT, WITH NO
         SIGNIFICANT WEATHER AND/OR OBSTRUCTIONS TO VISIBILITY.






USA.gov is the U.S. government's official web portal to all federal, state and local government web resources and services.